Theta_e
318 318 318 318 317 316 316 315 315 314 314 313 312 311 311 311 312 311 310 310 310 310 310 310 309 309 308 308 308 308 308 308 308 308 308 308 309 309 309 310 310 310 310 310 310 310 310 310 310 311 311 311 311 312 313 314 314 314 315 316 316 318 322 325 327 328 328 329 330 330 331 332 332 332 332 332 332 333 333 333 333 333 333 333 333
318 318 318 317 316 316 316 315 314 314 314 313 311 310 311 312 311 310 310 309 310 310 310 309 309 308 308 308 308 307 307 307 307 307 307 307 307 308 308 308 308 309 308 308 308 308 308 308 308 309 309 309 309 309 310 310 311 311 312 312 314 317 319 319 321 323 324 325 327 328 330 331 332 332 332 332 332 333 333 333 333 333 334 334 333
318 319 318 317 316 316 316 315 314 313 313 312 310 310 311 311 309 309 309 310 310 309 308 308 307 307 307 307 307 306 306 306 305 305 305 306 306 307 307 307 307 307 307 306 306 306 306 306 306 306 306 306 307 307 307 308 308 309 309 311 313 316 316 314 316 318 320 321 322 324 326 328 329 330 331 332 332 333 333 333 334 334 334 334 334
319 319 318 317 316 316 315 314 313 313 313 311 310 310 311 309 309 309 310 309 308 307 307 307 306 306 306 305 305 305 304 304 304 304 304 305 305 305 305 305 305 305 305 304 304 304 304 304 304 305 304 304 305 305 305 306 306 306 307 309 312 313 312 312 313 314 317 319 320 321 323 325 326 327 327 329 330 331 333 333 334 334 334 334 334
319 319 318 316 316 315 314 313 313 313 312 310 310 310 310 309 309 309 309 307 306 306 306 306 305 305 305 305 305 304 304 303 303 303 304 304 304 304 304 304 304 303 303 303 302 302 302 302 302 303 303 303 303 303 304 304 304 305 306 308 309 310 310 310 310 312 314 316 318 320 321 323 324 325 325 327 328 330 331 333 333 334 334 334 334
319 318 317 316 316 314 313 313 313 312 311 310 310 310 310 310 309 308 307 306 306 306 306 305 305 305 304 304 304 303 303 302 302 303 303 304 303 303 303 302 302 302 302 302 301 301 301 301 301 301 302 302 302 302 302 302 303 304 305 306 307 307 307 308 309 310 313 315 317 319 320 322 323 324 325 327 328 329 330 331 332 333 334 334 334
318 317 317 316 315 313 313 313 312 311 310 309 309 310 310 309 308 306 305 306 306 305 305 304 304 304 303 303 302 302 302 302 302 302 302 302 302 301 301 300 300 300 300 300 300 300 300 300 300 300 300 300 301 301 302 302 303 303 304 304 304 304 305 306 307 309 312 314 317 319 320 321 322 323 324 326 327 329 330 330 331 331 332 334 334
317 317 316 315 314 313 313 312 312 311 310 309 309 310 309 308 306 305 305 305 305 304 304 303 303 303 302 302 301 301 301 301 301 301 301 301 301 300 300 300 299 299 299 299 299 299 299 299 299 299 299 300 301 301 302 302 302 302 302 302 303 303 304 305 306 309 311 313 315 318 319 320 321 322 323 325 326 328 328 330 331 331 332 333 333
316 316 315 314 313 313 312 312 311 310 309 309 309 309 308 306 305 305 305 305 304 303 303 303 302 302 301 301 301 301 301 301 301 301 301 300 300 300 300 299 299 299 299 298 298 298 298 298 298 298 299 300 301 301 301 301 301 301 301 302 302 303 304 305 306 308 309 311 313 315 317 319 320 321 322 324 325 326 327 328 329 330 330 331 332
316 315 314 313 313 312 312 311 310 309 309 309 308 307 306 305 305 305 304 304 303 303 302 302 302 301 301 301 301 301 301 301 301 301 300 300 300 299 299 299 298 298 298 297 297 297 297 297 297 298 298 299 300 300 300 300 301 301 302 302 303 304 305 306 307 308 309 311 312 313 315 317 318 320 321 322 323 324 326 327 328 328 329 330 330
316 314 314 313 313 312 311 310 309 309 309 308 307 306 305 305 305 304 303 303 303 302 302 302 301 301 301 301 300 300 300 300 300 300 299 299 299 298 298 297 297 297 296 296 296 296 296 296 296 297 298 298 299 300 301 301 302 302 302 303 303 303 304 305 306 307 309 310 312 313 315 316 318 319 321 322 324 325 326 326 327 328 329 329 329
315 314 313 313 312 311 310 309 309 309 308 306 305 305 305 304 304 303 303 303 302 302 301 301 301 301 301 301 300 300 300 300 299 299 299 298 298 297 297 296 296 296 295 295 295 295 295 295 296 296 297 298 299 300 300 300 301 301 301 302 302 302 303 304 305 307 308 309 311 312 314 316 318 319 321 322 324 325 326 326 327 328 329 329 328
314 314 313 312 311 310 309 309 309 308 307 305 305 305 304 304 303 303 303 302 302 301 301 301 301 301 301 300 300 300 300 299 299 299 298 297 297 296 296 295 295 294 294 294 294 294 294 295 295 296 296 297 298 298 299 299 300 300 300 300 301 302 302 303 304 305 307 309 310 312 314 315 317 319 320 321 323 324 326 326 327 328 329 329 329
314 313 312 311 310 309 309 309 308 307 306 305 304 304 304 303 303 303 302 302 301 301 301 301 301 301 300 300 300 300 299 299 298 297 297 296 296 295 294 294 293 293 293 293 293 293 294 294 294 294 295 295 296 297 297 298 299 299 299 299 299 300 301 302 303 304 306 308 310 312 313 314 316 317 318 320 322 323 324 326 326 327 327 328 328
313 312 310 310 309 309 309 308 307 306 305 305 304 304 303 303 303 302 302 301 301 301 301 301 301 300 300 300 300 299 298 297 297 296 296 295 294 294 293 292 292 292 292 292 293 293 293 293 293 294 295 295 296 297 297 298 298 298 298 298 299 300 300 301 302 303 304 306 308 310 311 312 312 313 315 318 321 323 323 324 325 326 326 327 327
311 310 310 309 309 309 309 308 306 305 305 304 304 304 303 303 303 302 302 301 301 301 301 301 300 300 300 300 299 298 297 296 296 296 295 294 293 293 292 292 292 292 292 293 293 293 294 294 294 295 295 296 297 297 297 297 297 297 297 298 299 300 300 301 302 302 303 305 307 308 308 308 309 309 311 314 318 321 321 322 324 324 324 325 326
310 310 309 309 309 309 308 307 306 305 304 305 304 303 303 303 302 302 302 301 301 301 301 300 300 300 300 299 298 297 297 296 296 295 294 293 292 292 292 292 292 292 293 293 294 294 295 295 296 296 297 297 297 296 296 295 296 296 296 297 298 299 300 301 302 303 304 305 306 305 305 306 307 308 310 312 314 316 317 318 320 321 322 324 325
310 309 309 309 309 309 308 307 306 305 305 305 304 303 302 302 302 302 302 301 301 300 300 300 300 300 299 298 297 297 296 296 295 294 293 292 292 291 292 292 292 292 293 294 294 295 296 296 296 297 296 296 295 294 294 294 294 294 295 296 297 298 299 300 300 301 302 303 303 304 305 306 307 308 309 311 312 314 315 316 318 319 321 324 325
310 310 309 309 309 308 307 306 306 305 305 305 304 303 303 303 303 302 302 301 301 300 300 300 300 299 298 297 297 297 296 295 294 293 292 291 291 291 292 292 292 292 293 294 294 295 296 296 296 296 294 294 293 293 293 293 293 293 294 295 295 296 296 296 296 297 298 299 301 303 304 305 307 308 309 310 312 313 315 316 317 318 320 322 323
310 309 309 309 308 308 307 306 306 305 305 304 303 303 303 303 303 302 301 301 300 299 299 300 299 298 297 297 296 296 295 294 293 292 291 291 291 292 292 292 292 292 293 294 294 296 296 296 295 294 293 292 292 292 291 291 292 292 293 293 292 293 293 293 294 296 297 299 300 302 304 305 307 308 310 311 313 314 314 315 316 317 319 321 322
310 309 310 309 308 307 306 306 305 305 304 304 303 303 303 303 303 302 301 301 300 299 299 299 298 298 297 297 296 295 294 293 292 290 291 291 291 292 292 292 292 292 293 294 295 296 296 295 293 292 291 291 291 291 290 291 291 291 291 291 291 292 293 294 295 296 298 299 301 303 305 307 308 309 311 313 313 314 314 315 315 316 318 320 322
310 310 309 308 307 307 306 305 305 304 304 304 303 303 302 302 302 302 301 301 300 297 297 297 297 297 296 296 295 294 294 292 290 290 291 291 292 292 293 293 293 293 294 295 295 294 294 293 292 291 291 291 290 290 290 290 290 290 290 291 292 293 293 294 295 296 297 299 301 303 305 307 308 309 311 312 312 313 314 315 316 317 318 319 321
310 309 308 307 307 306 306 305 305 304 304 304 303 303 302 302 302 301 301 301 298 295 293 295 296 296 295 295 295 294 293 291 289 289 290 291 292 293 293 293 294 294 294 294 293 293 292 291 291 291 290 290 290 289 289 289 289 289 290 291 292 292 293 293 293 294 296 298 300 301 303 304 304 306 307 308 309 311 312 314 316 318 319 320 321
309 308 307 307 306 306 305 305 305 304 303 303 303 303 302 302 302 301 301 301 297 292 290 292 294 294 293 294 295 294 293 290 288 288 289 290 292 293 293 294 295 294 294 293 292 292 291 291 291 291 290 290 289 289 289 289 289 289 290 290 291 291 291 292 292 293 294 295 297 298 299 300 301 302 304 306 307 309 310 312 314 317 320 321 321
308 307 307 306 306 306 305 305 304 304 303 303 303 303 302 302 302 301 301 299 295 291 289 290 291 291 291 293 295 295 293 290 288 288 288 289 291 292 293 294 294 295 294 293 291 291 291 291 291 290 290 289 289 289 289 288 288 289 289 289 290 290 291 291 292 292 293 293 294 295 296 297 298 299 302 304 306 307 309 311 313 315 317 318 317
307 307 307 306 306 306 305 305 304 304 303 303 303 303 303 302 302 301 300 297 294 291 288 288 288 288 289 293 295 295 294 290 288 288 288 288 289 291 292 292 293 294 294 292 291 290 290 290 289 289 288 288 288 288 288 288 288 289 289 289 289 289 290 290 291 291 292 292 293 293 294 295 296 298 301 303 304 306 309 310 311 313 314 315 314
308 307 307 307 306 305 305 305 304 304 304 303 303 303 302 302 302 301 299 297 294 291 289 287 287 287 288 292 294 295 294 292 289 288 289 289 288 289 290 291 291 291 292 291 290 289 289 288 288 288 288 288 288 288 288 288 288 288 288 288 288 289 289 290 290 290 291 291 292 292 293 294 295 296 299 300 302 305 307 309 310 312 313 312 310
308 307 308 307 306 305 305 305 304 304 303 303 303 302 302 302 301 300 299 297 294 292 290 288 288 287 287 290 291 292 293 292 290 288 289 289 288 289 289 289 289 289 289 289 289 288 288 287 287 288 288 288 288 288 288 287 287 287 288 288 288 288 289 289 290 290 290 291 291 292 292 293 294 294 296 298 299 302 304 306 307 308 310 309 306
307 308 308 307 306 305 305 305 304 304 303 302 302 302 301 301 301 300 299 297 294 293 291 291 290 288 286 287 288 288 289 290 289 288 289 289 288 288 288 288 288 288 288 288 288 288 288 287 287 287 287 287 287 287 287 287 287 287 287 287 288 288 288 289 289 289 290 290 290 291 291 292 292 293 294 295 297 299 301 302 302 303 304 304 302
308 309 308 306 306 306 305 305 304 304 303 302 302 301 300 300 299 299 298 296 294 293 293 292 291 289 286 286 286 287 287 288 288 289 289 289 289 289 288 288 288 287 287 287 287 287 287 287 286 286 286 286 286 286 286 286 286 287 287 287 287 288 288 288 288 289 289 290 290 290 291 291 292 292 293 293 294 296 298 299 299 299 300 300 299
308 307 306 306 306 306 305 305 304 304 303 303 302 302 300 299 298 298 297 295 294 293 293 293 292 290 287 286 287 287 287 288 288 288 289 289 289 289 288 288 288 287 286 286 286 286 286 286 286 286 286 286 286 285 286 286 286 286 287 287 287 287 287 288 288 288 289 289 290 290 290 290 291 291 292 292 293 294 295 296 297 297 297 297 298
308 306 305 306 307 306 305 305 305 304 304 303 302 301 300 298 297 297 296 295 293 293 293 293 292 290 288 286 287 287 288 288 288 288 289 290 289 288 288 288 287 286 285 285 285 285 285 285 285 286 286 286 286 286 286 286 286 286 286 287 287 287 287 287 288 288 288 289 289 289 290 290 290 291 291 291 292 292 293 294 294 295 296 296 296
308 307 306 307 307 306 306 305 305 304 304 303 302 301 300 298 298 297 296 294 294 294 293 293 293 291 288 287 288 288 288 288 289 288 289 290 289 288 288 287 287 286 285 285 285 285 285 285 285 285 285 286 285 286 286 286 286 286 286 286 286 287 287 288 288 288 288 288 288 289 289 289 290 290 290 291 291 291 292 292 293 293 294 295 295
308 308 307 307 307 306 305 305 305 304 303 303 302 301 300 299 299 298 296 294 294 294 294 293 293 292 290 288 288 288 288 288 288 288 289 289 289 288 288 287 287 286 286 285 285 285 285 285 285 286 286 285 285 286 286 286 286 286 286 287 287 287 287 288 288 288 288 288 288 288 289 289 289 290 290 290 290 290 291 291 292 292 293 293 293
308 309 308 308 307 306 306 305 305 304 303 302 301 301 300 300 299 298 297 296 295 295 294 294 294 293 291 289 288 288 288 288 288 288 288 288 288 288 287 287 287 287 286 286 286 286 286 286 286 285 285 285 285 285 286 286 286 286 287 287 287 287 287 287 288 288 288 288 288 288 288 288 289 289 289 289 289 290 290 290 290 291 291 292 292
309 309 309 308 307 306 306 305 305 305 303 302 301 301 301 300 299 298 298 297 296 295 295 294 294 293 292 290 289 289 289 288 288 288 288 288 288 288 287 287 287 287 286 286 286 286 286 286 286 285 285 285 285 285 285 286 286 286 287 287 287 287 287 287 287 287 287 288 288 288 288 288 288 288 288 289 289 289 289 290 290 290 291 291 291
309 309 308 308 307 306 306 305 305 305 304 303 302 301 300 299 299 298 298 297 296 294 294 295 294 293 292 291 290 289 289 289 289 288 288 288 288 287 287 287 287 287 287 286 286 286 286 286 286 285 285 285 285 285 285 286 286 286 287 287 287 287 287 287 287 287 287 287 287 287 288 288 288 288 288 288 288 288 289 289 290 290 290 291 291
308 309 308 307 306 306 305 305 305 304 304 303 302 301 299 298 298 297 297 296 295 294 294 294 294 293 293 292 291 290 289 290 290 289 288 288 287 287 287 287 287 287 287 286 286 286 286 286 286 285 285 285 284 284 284 285 286 287 287 287 287 287 287 287 287 287 287 287 287 287 287 287 287 288 288 288 288 288 288 289 289 289 290 290 290
307 308 308 307 306 305 305 305 305 304 304 304 302 300 298 297 296 296 295 294 294 294 294 294 294 294 293 292 291 290 290 290 290 289 288 287 287 287 287 287 287 287 287 286 286 286 285 285 285 285 285 285 284 284 284 285 286 287 287 287 287 287 287 287 286 286 287 287 287 287 287 287 287 288 288 288 288 288 288 288 288 289 289 289 289
306 306 306 306 305 305 305 305 304 304 303 303 301 299 298 297 296 296 295 294 294 294 293 294 294 294 293 292 292 291 290 291 290 289 288 287 287 287 286 287 287 287 286 286 286 285 285 285 285 285 284 284 284 284 285 286 286 287 287 287 287 287 287 286 286 286 286 286 286 287 287 287 287 288 288 287 287 288 288 288 288 288 288 288 289
306 306 306 306 305 305 304 304 304 303 303 302 301 299 298 298 297 297 296 295 295 294 293 293 294 293 293 292 291 290 290 291 290 289 288 287 287 286 286 286 286 286 286 286 286 285 285 285 285 285 284 283 283 284 285 286 286 287 287 287 287 287 287 286 286 286 286 286 286 286 286 287 287 287 287 287 288 288 288 288 288 288 288 288 288
307 307 307 306 305 304 304 304 304 304 303 302 301 300 299 299 299 298 296 295 295 294 293 293 293 293 292 291 289 289 290 290 289 288 288 287 287 286 286 285 285 286 286 286 285 285 285 285 284 284 284 283 284 285 286 286 286 287 287 287 287 287 287 286 286 286 286 286 286 286 286 286 287 287 287 287 288 288 288 288 288 288 288 288 288
307 308 308 306 305 305 305 305 304 304 303 302 302 301 300 300 300 299 296 295 294 294 294 294 293 293 291 289 288 289 290 289 289 288 288 287 286 286 285 285 285 285 285 285 285 285 285 284 284 284 284 283 284 285 286 286 286 287 287 287 287 287 287 286 286 286 286 286 286 286 286 286 286 287 287 287 287 287 287 287 287 287 287 287 287
307 307 307 305 305 305 305 305 304 304 303 303 303 302 301 301 301 299 296 295 294 294 294 294 293 292 290 288 288 289 289 289 288 288 288 287 286 286 285 285 285 284 285 284 284 284 284 284 284 283 283 282 283 285 286 286 286 287 287 287 287 287 286 286 286 286 286 286 286 286 286 286 286 286 286 287 287 287 287 287 287 287 287 287 287
309 308 307 305 304 304 304 304 304 304 303 303 302 301 301 300 300 298 297 295 294 294 294 294 293 292 291 289 288 289 289 288 288 288 287 287 286 286 285 285 285 284 284 284 284 284 284 283 283 283 282 282 283 285 286 286 286 287 287 287 287 287 287 286 286 286 286 286 286 286 286 286 286 286 286 286 286 287 287 286 286 286 286 286 286
309 309 308 307 305 304 304 304 304 304 303 303 302 302 301 300 299 298 297 295 294 294 294 293 293 292 292 290 289 288 288 288 288 288 287 287 286 286 285 285 285 284 284 284 283 283 283 283 283 282 282 282 283 285 286 286 286 286 286 287 287 287 287 286 286 286 286 286 286 286 286 286 286 286 286 286 286 286 286 286 286 286 285 285 285
308 308 308 307 305 304 304 304 304 304 303 302 302 302 301 300 299 298 297 295 294 294 294 294 293 293 292 291 290 289 288 289 288 288 287 287 287 286 285 285 285 284 284 284 284 284 283 283 283 282 282 282 283 285 285 286 286 286 286 287 287 287 287 286 286 286 287 287 287 287 287 287 286 286 286 286 286 285 285 285 285 285 285 285 285
307 307 307 306 305 304 303 303 303 303 303 302 302 301 301 300 300 299 298 296 294 294 294 293 293 293 292 292 291 290 289 289 289 288 288 287 287 286 286 285 285 284 284 284 284 284 284 284 283 282 282 282 283 285 285 286 286 286 287 287 287 287 287 287 286 287 287 287 287 287 287 287 287 286 286 286 286 285 285 284 285 285 285 285 285
307 307 307 306 305 304 303 303 302 302 302 302 302 301 301 300 300 300 298 296 294 294 294 294 293 293 293 292 291 291 291 290 289 288 288 288 287 287 286 286 285 285 284 284 283 283 283 283 283 282 281 282 284 285 285 286 286 286 287 287 287 287 287 287 286 286 286 287 287 287 287 287 287 286 286 286 286 285 284 284 284 284 284 284 284
307 306 306 306 306 305 304 303 303 302 301 301 301 301 301 301 300 300 298 296 295 294 294 294 293 293 293 292 292 291 291 291 290 289 288 288 287 287 286 286 285 285 285 284 283 283 283 283 283 282 281 282 283 285 286 286 286 286 287 287 287 287 287 286 286 286 286 287 287 286 286 287 286 286 286 286 285 285 285 284 284 284 284 284 284
306 306 305 305 305 305 304 303 302 302 301 301 301 301 301 301 301 300 299 297 295 294 294 294 294 293 293 293 292 292 292 292 291 290 289 288 288 287 287 286 285 285 285 284 284 284 283 283 282 282 281 281 283 284 286 286 286 286 286 287 287 287 286 286 286 286 286 286 286 286 286 286 286 286 285 285 285 285 285 284 284 284 284 283 283
Wind_Speed
22 21 19 19 17 15 13 13 10 7 5 3 4 4 4 5 4 4 6 7 7 8 9 9 9 10 11 13 14 15 16 16 16 16 16 16 14 12 12 12 10 10 10 10 12 13 14 15 16 18 18 18 18 17 17 18 19 20 19 19 20 20 20 19 13 12 20 25 26 30 30 28 28 29 29 29 30 30 29 30 31 32 34 35 35
24 22 21 20 19 16 15 14 10 7 5 3 4 4 4 4 3 5 6 7 7 7 7 7 8 10 12 13 15 16 17 17 17 17 17 16 14 13 12 10 10 11 12 13 14 15 16 17 18 19 20 20 20 20 20 20 20 21 21 21 22 19 17 19 17 13 16 21 24 26 26 23 24 27 26 27 29 30 29 30 31 32 34 35 37
25 24 23 23 19 16 16 14 10 8 6 3 3 3 4 4 4 6 7 6 6 5 6 7 9 12 13 15 16 17 19 19 19 18 17 16 15 14 13 12 13 13 14 15 16 17 18 18 20 20 21 21 22 22 22 22 21 21 22 22 20 19 19 20 19 15 16 20 23 24 24 21 21 24 25 25 28 28 29 30 30 30 31 33 34
26 25 25 22 18 15 15 13 10 8 6 4 4 4 4 4 5 6 6 4 4 5 7 9 11 13 14 15 16 17 18 19 19 17 15 15 15 15 15 15 15 15 15 15 16 17 18 19 20 22 22 22 22 23 22 22 23 22 22 22 20 20 23 24 21 19 18 20 22 23 24 23 21 23 25 25 26 26 26 27 28 29 30 31 32
26 27 25 20 16 16 15 12 10 8 6 4 4 4 5 6 7 5 3 2 3 5 7 8 10 12 13 14 16 16 16 17 17 15 14 14 15 16 16 17 17 16 16 17 17 17 18 18 19 20 21 22 23 23 23 23 24 23 22 22 21 21 24 25 24 22 20 20 23 24 25 24 24 24 24 24 25 26 25 24 25 27 29 30 31
28 27 23 19 17 17 14 12 10 7 5 5 4 5 7 7 5 1 1 2 2 3 5 7 9 11 12 13 14 14 15 15 16 15 14 14 15 17 18 18 19 19 20 20 20 20 19 19 20 20 20 21 23 24 25 25 25 23 22 22 23 23 24 25 25 24 22 22 23 25 25 23 23 25 23 21 22 24 25 25 25 26 27 29 31
27 24 21 20 19 16 13 11 9 6 5 4 4 7 7 4 1 1 0 1 0 2 4 7 9 11 13 13 14 14 14 14 14 14 15 17 18 18 19 19 20 21 22 23 23 23 22 21 21 22 22 23 23 24 25 25 24 23 23 24 24 25 24 25 25 24 22 21 22 23 24 22 21 23 24 23 22 22 23 23 25 26 25 25 27
25 22 20 21 19 15 12 10 8 5 3 3 5 7 4 3 3 3 3 2 1 3 6 8 10 11 12 12 13 13 13 13 14 14 16 18 19 20 21 21 22 23 24 24 24 24 25 24 24 24 24 23 23 23 24 24 24 24 23 22 23 23 23 23 23 23 22 21 20 22 24 24 21 20 23 24 21 19 20 20 21 25 25 23 24
23 21 22 21 17 13 11 9 6 4 3 4 6 4 5 6 5 4 3 2 4 6 8 10 11 11 11 12 12 12 11 11 13 14 15 17 18 20 22 23 25 26 26 26 25 25 25 25 25 24 23 22 22 23 23 23 24 24 24 23 23 22 21 21 21 21 20 19 19 19 22 24 22 18 19 21 20 20 22 21 20 25 27 26 26
25 24 24 20 15 13 10 8 6 4 4 5 4 6 7 6 5 4 3 5 6 8 10 11 11 11 11 11 11 10 10 10 11 13 15 16 18 20 21 23 24 25 26 26 26 26 24 24 24 23 21 20 20 20 21 21 21 22 23 23 22 20 19 19 19 19 19 18 17 17 17 20 23 21 19 22 24 25 25 22 21 23 23 21 23
28 26 23 18 14 12 9 7 5 4 4 5 7 8 8 6 5 4 4 6 8 9 10 11 11 10 10 10 10 9 9 9 11 13 15 16 18 19 20 23 24 24 24 25 25 26 26 25 24 22 19 18 18 18 19 19 19 20 20 20 20 20 20 20 20 20 19 19 18 17 17 19 23 24 23 23 24 25 25 24 22 21 18 13 12
28 26 21 17 15 11 8 6 4 3 5 8 9 8 7 6 4 4 5 7 9 10 10 10 10 9 10 10 10 10 10 10 12 13 14 15 16 18 20 22 23 23 23 24 25 26 25 23 21 19 17 16 17 18 18 18 18 19 20 21 22 23 22 22 22 22 22 22 20 19 19 20 22 23 24 24 24 25 25 24 22 20 19 15 11
27 23 19 17 13 9 7 7 6 6 9 10 9 8 6 4 3 4 5 7 9 10 10 9 9 10 11 10 10 10 10 11 12 13 14 16 17 19 20 20 20 20 21 22 22 22 21 20 19 18 17 17 17 17 17 18 20 21 23 24 23 22 22 22 23 24 25 26 24 23 22 22 23 24 25 25 24 25 23 21 20 20 20 19 18
24 21 18 15 11 9 9 9 8 10 11 11 9 7 4 3 3 3 5 7 9 10 9 10 11 11 11 9 9 9 10 11 13 14 15 17 18 19 19 19 19 19 19 18 17 18 18 19 19 19 19 19 18 17 19 21 23 25 27 28 26 24 23 23 23 24 26 26 25 25 23 23 24 26 28 29 28 26 23 20 20 21 22 22 23
23 20 17 14 11 11 11 9 10 12 12 10 8 5 3 2 1 2 5 7 9 10 10 10 11 11 9 8 8 10 11 11 12 13 15 16 18 19 20 19 18 17 16 15 15 16 17 17 18 19 20 20 19 19 21 23 25 27 29 29 27 25 23 23 23 24 26 27 27 26 26 26 27 27 28 29 29 29 26 24 23 24 24 24 23
21 17 15 14 12 12 11 11 12 13 12 9 6 3 2 1 1 1 3 6 9 10 10 11 12 10 8 8 10 11 10 9 10 13 14 16 19 20 18 17 16 16 16 16 16 16 16 17 17 18 19 18 18 19 21 24 26 27 27 26 24 23 23 24 24 25 27 27 28 29 29 30 31 30 29 26 24 26 26 25 25 23 21 19 19
18 15 15 14 13 12 12 13 14 13 11 9 5 2 2 1 0 1 3 6 8 8 9 10 11 9 8 10 11 10 8 7 10 13 15 18 19 17 14 13 15 17 18 17 16 16 16 16 16 18 18 17 17 19 20 21 22 22 21 21 21 21 21 22 22 22 23 25 29 31 32 31 31 31 31 27 22 19 19 20 19 17 15 12 11
16 16 16 15 14 13 14 15 15 14 11 8 5 2 1 1 1 2 4 6 5 6 9 9 9 7 8 10 9 6 7 9 11 14 17 18 16 12 11 13 15 17 18 18 16 16 16 15 14 16 16 16 18 19 18 18 19 20 20 20 20 20 19 20 22 24 25 27 30 31 32 31 30 29 29 28 23 18 16 16 15 15 15 11 8
18 18 17 15 14 15 16 16 15 14 11 8 5 3 2 1 3 5 4 4 3 6 7 7 6 5 7 9 7 5 9 11 12 16 18 15 11 9 11 14 15 17 18 17 16 15 15 14 13 14 16 18 18 18 17 18 19 20 19 18 19 19 19 22 26 29 30 30 29 29 29 30 29 27 26 25 22 17 15 15 16 16 17 15 12
21 19 16 14 16 17 16 15 14 13 11 8 6 5 4 3 5 6 5 2 2 4 5 5 5 4 5 9 7 6 10 13 13 15 14 9 7 8 11 13 15 17 17 15 14 15 14 13 12 14 16 16 15 16 17 18 17 17 16 17 19 21 23 26 28 28 28 28 27 26 26 26 26 25 24 22 20 17 16 16 16 17 17 17 16
20 17 15 17 19 18 16 15 14 13 10 8 8 7 6 5 7 7 5 3 1 3 3 4 4 3 5 8 6 5 10 13 13 12 10 7 6 8 10 12 13 15 15 14 14 14 13 11 11 14 15 14 13 15 17 17 16 16 18 19 19 21 22 24 24 23 22 22 22 22 21 20 19 19 17 16 15 14 15 15 14 15 15 17 17
20 18 19 21 21 18 17 16 15 12 10 9 9 9 7 6 9 9 7 5 3 4 4 3 3 3 5 7 5 5 9 12 11 10 9 8 7 8 10 12 12 11 11 12 12 11 10 10 11 13 14 13 12 15 17 18 18 19 20 20 18 17 17 18 18 18 17 17 18 17 15 13 12 12 11 11 9 9 9 9 9 11 12 14 14
22 23 24 24 21 19 18 17 15 12 9 9 10 9 8 9 11 10 8 5 3 4 4 3 2 3 4 5 4 4 8 10 10 10 10 9 8 8 10 11 11 10 10 11 11 10 9 10 11 12 13 14 13 15 18 20 20 21 22 21 20 19 18 18 18 17 16 15 14 13 13 12 12 12 12 11 10 9 7 5 4 6 9 11 12
25 26 25 23 21 19 18 17 14 11 9 11 11 10 10 13 13 11 8 5 3 4 4 3 3 3 4 3 2 4 7 8 9 11 11 11 10 9 9 10 10 10 10 10 10 9 9 9 9 10 12 14 15 16 18 20 21 21 22 23 24 23 22 20 19 17 16 15 15 15 15 14 14 13 13 12 11 9 8 5 1 0 3 5 7
27 27 25 23 21 19 19 17 13 11 11 12 11 11 13 16 15 12 9 6 3 3 3 3 4 3 3 2 2 3 5 6 8 11 12 12 11 9 8 8 8 8 8 9 9 9 8 7 8 10 12 14 16 17 18 20 22 22 23 24 25 26 24 21 19 18 17 16 16 16 17 17 17 15 12 10 9 8 8 5 1 3 5 7 9
29 28 26 23 20 20 19 16 14 13 11 10 11 13 16 18 16 13 10 6 3 2 2 3 3 3 3 2 1 2 4 5 6 9 11 12 11 10 9 8 8 6 6 6 7 7 8 9 10 11 13 14 16 17 19 20 22 24 25 25 25 25 24 22 20 19 18 17 17 18 18 19 18 14 10 7 6 6 4 3 2 4 6 8 10
29 28 24 20 20 21 20 17 16 14 11 11 13 15 17 19 17 14 11 7 3 1 1 2 3 3 3 2 1 1 2 3 4 7 9 11 11 11 10 9 8 7 5 5 6 7 9 11 12 12 13 14 16 17 18 20 22 24 25 25 25 24 23 22 21 21 20 19 18 19 19 20 19 16 13 10 8 6 2 1 1 3 6 8 10
30 27 22 19 22 23 20 18 17 15 13 14 15 15 17 19 18 15 12 8 4 3 2 1 1 2 2 3 2 1 2 2 3 5 8 10 10 10 10 9 9 8 6 5 5 6 8 11 13 14 15 16 17 18 20 21 21 23 24 25 25 25 25 26 26 25 24 22 21 22 22 22 22 21 18 16 14 12 8 6 5 5 5 6 8
30 27 22 22 24 22 20 19 17 15 16 16 15 14 17 19 18 15 12 8 5 3 2 1 1 1 1 2 2 2 3 3 3 5 7 8 7 7 8 8 7 6 5 3 3 5 8 12 15 17 17 19 20 20 21 22 22 23 24 25 26 26 26 27 27 27 26 25 24 24 23 23 23 23 22 20 19 18 16 14 14 14 13 13 14
28 25 23 24 24 21 20 20 17 16 19 17 14 14 17 18 18 15 11 9 7 4 3 2 1 2 1 2 3 4 5 5 5 5 6 5 3 4 6 6 4 4 4 2 3 6 10 13 15 16 16 18 19 20 20 21 22 23 24 25 26 26 26 26 25 25 25 25 25 24 23 23 24 25 24 23 22 21 21 20 19 19 19 18 17
24 20 20 22 22 21 22 20 17 17 19 17 15 16 17 18 18 15 11 10 9 6 5 4 1 1 2 4 5 6 7 7 6 6 6 4 3 4 5 4 4 5 5 4 7 10 12 13 14 14 14 15 16 17 18 19 20 22 23 24 25 25 26 25 25 24 24 25 25 25 25 24 24 24 24 23 23 22 23 23 22 21 20 18 17
24 21 22 24 23 22 22 19 18 19 20 18 17 18 18 18 17 15 13 13 12 9 8 7 4 1 2 4 6 7 7 6 7 7 6 3 5 5 5 4 5 6 5 7 11 13 12 12 13 13 13 14 14 15 16 17 19 20 22 23 24 24 24 24 23 23 23 24 24 25 26 25 24 24 24 24 24 24 23 22 21 19 18 19 18
26 27 28 27 24 22 22 20 19 21 21 20 19 20 21 20 19 18 17 16 14 12 11 10 7 5 3 5 6 7 6 6 7 7 6 4 5 4 4 5 6 6 7 10 13 14 12 12 12 12 12 12 12 13 14 16 17 19 20 21 21 22 22 22 22 23 23 23 23 24 25 25 24 24 24 24 23 23 23 23 21 19 18 18 18
29 28 27 26 25 24 22 21 21 22 22 22 21 22 23 22 21 20 19 18 16 15 14 13 11 8 6 6 6 6 6 6 6 6 6 4 4 2 3 5 6 8 9 12 13 13 12 11 11 11 11 11 10 11 12 14 16 17 18 19 19 19 20 21 22 24 24 23 23 23 23 24 24 23 23 23 23 23 23 23 21 20 19 17 17
29 26 24 24 25 25 23 21 21 22 23 22 22 22 22 22 21 20 19 19 18 17 15 14 14 12 9 8 7 7 6 5 5 5 4 4 4 2 2 5 6 7 8 10 11 10 10 10 10 10 10 9 9 9 10 12 14 15 16 17 18 19 20 20 22 23 23 23 23 23 22 23 23 22 21 22 23 23 22 21 21 20 19 17 17
27 25 24 25 26 25 24 23 22 23 24 23 22 21 21 22 22 20 19 18 17 16 14 13 13 13 12 10 9 8 7 5 4 2 2 3 4 3 3 5 6 7 7 8 8 8 8 8 7 8 9 8 8 7 7 8 11 12 13 15 16 18 19 20 20 22 23 23 23 23 23 23 22 22 21 22 22 21 20 20 20 20 20 19 19
27 25 25 26 27 26 24 22 22 24 25 23 21 20 20 21 21 21 20 19 17 16 14 12 13 15 16 14 11 10 8 7 5 3 3 5 4 3 3 5 5 6 6 6 6 6 7 7 6 7 8 7 7 6 5 6 8 10 11 13 15 16 17 18 19 20 21 22 21 21 22 22 22 22 22 22 22 22 21 20 20 21 22 22 22
29 28 27 27 27 25 22 20 22 24 23 21 20 20 20 21 21 20 19 19 17 16 15 14 15 18 18 15 12 11 10 8 7 7 7 7 5 4 5 5 5 5 6 5 5 5 6 6 6 6 6 6 7 6 5 5 6 9 11 13 13 14 15 16 18 19 20 21 20 20 20 21 22 22 22 22 21 21 21 21 21 21 22 23 22
22 25 28 29 27 24 22 21 22 24 22 21 21 21 21 21 20 19 19 18 17 16 15 16 18 19 17 14 13 14 12 11 10 11 11 9 6 6 6 6 6 6 5 5 5 5 5 6 5 5 5 5 6 6 6 6 7 9 11 12 13 14 15 16 17 18 19 19 19 18 19 20 21 21 22 22 21 21 21 21 22 21 21 22 21
18 21 25 27 26 24 23 22 23 23 22 21 22 22 22 22 21 19 19 18 17 16 17 18 19 18 16 15 15 16 15 14 14 14 12 10 8 7 7 7 7 7 6 5 5 5 5 5 4 4 4 5 7 6 7 8 8 9 11 12 13 14 14 15 15 16 17 18 18 18 18 19 20 21 21 22 21 21 21 22 22 23 23 22 22
22 22 24 26 27 26 24 23 23 23 23 22 22 23 23 23 21 20 19 19 19 19 19 19 18 18 17 16 15 15 16 16 17 15 13 11 10 8 7 7 8 7 6 6 5 5 5 5 3 3 4 6 7 7 8 8 9 10 10 11 12 12 13 14 14 15 16 17 17 17 18 18 19 20 21 21 21 21 22 23 23 24 25 24 24
22 21 23 26 27 26 25 24 24 24 23 22 22 23 24 24 22 21 19 19 20 20 19 19 18 18 16 15 14 15 16 17 17 15 13 12 11 9 8 7 8 8 6 5 5 6 6 4 3 2 4 6 6 7 9 9 9 10 10 10 11 11 12 13 14 14 15 16 16 17 17 18 19 20 20 21 21 22 23 24 24 24 25 24 24
19 22 25 27 28 28 27 27 26 25 25 25 24 24 25 24 23 21 20 20 21 20 19 19 19 19 17 15 15 16 17 17 16 15 14 13 12 10 9 8 7 7 6 5 5 7 6 4 3 2 3 6 6 8 9 9 9 10 10 10 10 10 11 12 13 14 15 15 15 15 16 17 18 19 20 21 21 22 23 24 24 24 24 24 24
17 21 24 26 29 30 29 28 27 27 27 27 26 26 27 26 24 22 22 22 22 20 20 21 21 20 18 17 17 18 18 18 17 15 14 13 12 11 10 8 7 7 7 6 6 7 7 4 3 1 2 4 5 7 9 9 9 9 10 10 9 10 10 10 11 13 14 14 14 14 15 16 18 19 20 20 21 22 23 23 23 24 24 24 24
16 18 21 25 28 28 28 28 28 28 27 27 26 27 27 26 25 23 23 24 23 21 21 22 22 21 19 18 19 19 19 19 17 16 15 15 13 12 11 10 8 7 7 8 8 8 7 5 3 2 2 3 4 7 8 8 8 9 9 9 9 9 10 10 10 11 12 13 13 13 13 14 16 18 19 20 21 22 22 22 23 23 24 24 24
14 16 20 25 27 28 28 29 29 28 28 28 28 28 27 26 25 24 25 25 24 23 23 23 23 22 20 19 19 20 21 20 18 17 17 16 14 13 12 11 10 8 8 9 9 8 7 5 3 2 2 2 4 7 8 8 8 8 9 9 8 9 9 9 9 10 11 11 12 12 12 13 15 17 18 19 21 21 21 21 22 22 23 23 24
12 14 18 23 27 29 30 30 30 29 29 28 28 28 28 27 26 24 24 25 25 24 24 23 23 23 22 20 20 21 22 21 20 19 18 17 16 14 13 12 11 10 9 9 9 9 8 6 4 3 2 3 5 8 9 8 8 7 7 8 8 8 9 9 9 9 10 10 10 10 10 11 14 16 18 19 20 21 22 21 21 21 22 22 23
12 13 15 19 23 27 29 28 27 27 28 27 28 27 27 27 25 24 24 25 26 25 24 24 24 24 23 22 21 21 21 21 21 20 19 18 17 16 15 14 13 12 11 10 10 10 9 7 5 3 3 3 6 9 10 9 8 7 7 7 7 7 8 9 9 9 8 8 9 9 9 10 13 15 17 18 19 21 22 22 22 21 21 22 22
15 15 15 16 18 23 26 27 27 27 28 28 29 28 27 26 24 23 24 26 27 26 25 25 25 25 24 24 22 22 22 22 22 21 20 20 19 18 16 15 14 13 12 11 10 10 10 9 6 4 4 5 7 10 11 9 8 7 6 6 6 7 7 8 8 8 8 7 7 8 9 11 13 15 16 17 19 20 22 23 23 23 23 22 21
16 16 16 16 17 20 23 26 27 27 27 27 27 27 26 25 24 24 25 27 27 27 26 26 25 25 25 25 24 24 24 23 23 22 22 21 20 19 18 16 15 14 13 12 11 10 11 10 8 6 6 6 8 10 11 10 8 7 7 7 7 7 7 7 8 8 7 7 8 9 11 13 15 16 16 16 18 20 21 22 22 23 23 23 22
17 17 17 17 17 18 21 23 25 25 25 25 26 27 26 24 24 24 25 26 27 27 27 26 26 26 26 26 26 26 25 25 24 23 23 22 21 20 19 18 18 16 15 13 12 11 10 10 8 7 7 7 8 10 12 11 9 8 7 7 7 7 7 7 7 8 8 8 9 11 12 13 15 16 16 16 18 19 20 21 21 22 22 22 22
Wind_Direction
206 208 213 219 224 227 224 215 213 221 228 270 310 316 307 300 299 319 330 327 323 328 334 337 343 346 343 340 340 342 345 347 349 349 350 348 342 336 336 338 337 335 334 331 327 326 325 323 322 320 322 327 329 328 328 327 327 327 328 325 324 326 321 311 305 298 295 293 289 287 286 283 281 282 282 282 282 280 277 274 273 271 270 271 272
205 210 215 218 223 229 222 211 211 216 221 269 304 302 292 282 293 313 319 320 318 324 331 333 336 335 330 327 326 327 332 337 341 346 350 351 349 347 343 339 336 331 328 328 329 330 329 325 321 319 318 321 322 322 322 322 323 324 325 325 323 321 325 327 324 316 311 311 307 301 298 292 285 285 286 285 285 284 281 278 275 272 271 272 272
207 213 215 216 223 228 216 207 209 211 218 261 290 286 276 268 294 307 306 310 313 317 324 327 328 326 324 324 323 323 325 327 330 337 344 345 342 340 338 337 335 332 329 329 327 327 327 325 322 320 321 320 318 317 317 317 319 320 319 319 319 314 314 319 321 316 312 314 314 314 313 309 300 297 296 292 290 287 281 278 277 275 275 275 275
209 213 213 216 220 218 206 202 208 214 224 256 274 271 262 267 293 295 292 306 324 331 332 330 327 325 327 330 331 331 330 329 330 333 336 336 334 334 332 330 330 330 329 329 328 327 326 324 321 320 320 320 317 315 315 314 314 315 314 312 311 309 309 311 312 310 307 305 306 308 310 310 306 304 304 300 296 290 283 279 278 276 276 277 276
209 210 211 212 210 203 198 201 209 216 228 259 277 273 268 281 289 281 281 324 337 334 332 329 329 332 335 336 334 333 335 336 336 337 334 330 329 329 329 328 328 328 327 327 326 326 326 323 320 319 318 316 314 313 312 312 312 311 309 307 306 307 307 307 306 306 302 299 301 303 304 305 303 304 307 305 300 295 290 285 280 277 276 275 273
207 208 209 208 203 197 195 203 209 216 242 278 290 282 281 285 282 255 320 335 325 324 329 332 336 339 339 337 336 335 337 337 337 338 335 330 330 328 327 328 328 327 326 326 325 324 323 321 318 316 314 310 309 308 307 307 306 305 304 303 303 304 303 303 303 302 299 296 296 297 298 300 301 302 305 305 300 296 294 291 286 280 275 272 271
205 205 207 203 198 195 196 205 212 227 264 294 294 287 283 269 199 144 185 214 187 340 342 346 346 342 338 337 338 338 340 338 335 334 330 329 331 332 331 331 330 328 326 324 323 322 320 319 316 313 310 308 306 304 304 303 301 298 298 299 299 299 297 297 298 297 295 294 292 292 292 293 294 295 299 302 298 293 291 290 287 285 280 273 271
210 206 202 196 193 195 199 206 216 237 270 293 289 285 261 181 161 160 163 145 61 12 3 357 350 345 343 342 341 341 342 338 332 328 324 324 327 328 330 330 329 327 325 322 320 319 317 316 313 311 309 306 304 302 300 300 298 296 296 297 296 294 293 292 292 291 290 289 288 290 291 290 288 289 294 298 296 292 290 285 282 285 283 276 273
210 202 194 191 191 193 196 201 215 240 273 281 277 253 183 163 159 150 130 72 34 19 9 1 354 351 349 347 346 346 343 335 328 323 320 319 321 322 323 324 324 323 321 319 317 316 315 314 312 310 307 303 300 299 297 297 296 294 293 292 290 289 288 288 288 287 286 285 283 286 288 287 285 286 286 286 286 289 290 286 279 280 282 280 276
204 195 189 190 190 189 193 202 214 241 266 258 226 180 166 158 143 125 85 47 31 18 8 1 357 355 353 352 350 349 345 333 322 319 318 318 319 320 320 320 320 320 319 318 317 316 314 312 310 307 304 301 300 299 298 298 296 294 293 291 288 288 290 290 288 285 282 280 278 280 282 282 284 284 281 279 281 283 286 284 279 280 282 281 280
200 193 188 188 186 185 193 199 207 236 238 199 173 165 160 145 128 102 61 38 23 13 6 2 360 357 355 353 350 348 342 327 316 315 316 317 319 320 321 320 319 319 319 317 315 314 312 311 310 308 305 303 302 302 302 303 304 303 302 299 298 298 299 296 291 286 282 279 277 275 271 274 281 283 280 278 278 277 278 278 277 278 278 274 278
195 189 186 183 182 186 195 198 208 219 185 166 159 154 146 132 114 77 47 29 17 11 4 1 1 357 352 351 354 353 341 323 315 313 313 316 319 319 320 321 320 317 316 313 311 310 310 311 312 309 307 306 305 305 306 306 305 303 304 305 304 302 300 296 291 287 283 280 279 276 273 275 278 278 278 277 274 272 273 273 271 269 267 264 260
189 184 180 178 180 187 193 193 194 182 167 161 155 147 137 122 98 67 42 26 16 10 5 1 358 353 351 355 359 352 333 317 312 312 315 318 320 320 321 321 317 314 314 312 310 309 310 312 312 309 308 308 307 307 307 305 304 303 305 309 308 304 301 297 293 290 286 281 276 273 274 276 277 275 276 277 276 272 269 268 268 264 258 255 254
182 177 175 177 182 183 182 180 175 169 166 161 153 144 129 109 97 62 32 24 15 7 2 356 353 353 355 356 351 336 321 316 317 318 322 324 324 325 325 323 320 320 317 310 306 308 311 311 310 309 310 310 310 308 306 305 307 308 308 308 306 303 299 296 294 291 289 287 281 278 281 285 286 285 282 278 275 272 269 266 268 265 261 261 262
177 176 175 176 179 177 174 173 169 167 165 160 155 144 118 99 83 27 20 15 4 357 353 350 353 358 354 345 340 336 331 328 327 326 326 326 328 329 328 328 329 329 324 318 316 317 317 316 314 313 313 311 310 307 305 307 311 311 309 307 303 298 293 291 289 287 288 290 288 287 292 295 297 299 295 284 273 270 271 271 269 268 267 268 268
176 176 174 176 178 176 176 177 175 171 168 166 162 138 92 44 318 353 8 359 350 346 347 354 359 357 348 343 347 350 347 337 328 327 326 327 330 332 333 336 339 336 334 335 335 333 332 328 322 318 315 311 312 312 311 312 315 314 311 308 303 297 292 289 287 285 286 286 285 287 292 295 295 299 302 297 281 275 278 276 272 270 265 262 264
174 175 179 182 181 180 185 186 182 178 177 176 168 126 61 39 257 299 337 339 339 342 351 2 0 347 343 354 359 359 356 337 324 325 328 331 334 338 343 347 345 341 342 345 344 344 347 341 326 320 320 319 321 323 322 321 321 319 315 310 305 300 295 293 292 288 282 279 281 287 292 294 294 297 301 302 297 292 290 282 275 270 258 249 254
174 180 187 188 186 189 195 195 191 189 190 191 189 177 84 56 247 271 307 317 329 353 2 3 355 344 351 2 3 359 350 338 329 331 335 337 341 350 355 351 346 343 345 348 349 352 356 353 340 335 337 336 333 332 332 330 329 326 320 312 307 302 300 302 301 295 288 285 284 286 290 292 295 298 301 303 304 301 292 285 283 273 255 246 250
186 191 192 189 191 196 199 199 199 200 202 205 202 192 168 206 243 249 267 286 331 4 6 358 354 357 2 2 358 352 348 343 337 336 339 342 348 358 359 354 349 345 343 345 351 357 1 3 358 348 342 338 337 338 339 336 332 328 322 315 310 306 306 307 305 301 299 298 294 291 292 294 297 301 304 304 303 297 285 285 289 277 261 255 257
194 194 192 192 195 198 199 199 200 202 205 205 196 187 189 206 217 222 229 245 340 2 360 360 7 12 3 359 356 350 349 347 343 341 343 349 354 355 1 359 350 345 344 344 350 358 5 9 5 351 342 340 343 347 347 343 340 337 333 327 317 310 310 310 307 304 303 302 300 297 295 296 298 302 305 303 300 296 289 285 283 276 268 262 256
196 194 195 196 194 195 197 198 198 199 200 199 193 187 188 198 204 207 209 217 291 343 343 358 12 10 357 355 353 344 346 349 351 354 359 11 8 358 6 7 354 348 351 354 360 5 9 15 10 357 352 353 357 360 359 1 2 356 348 340 327 316 315 314 310 307 303 301 302 301 298 298 299 301 304 305 304 300 293 284 274 267 264 261 255
198 195 194 192 191 193 195 195 194 193 193 195 194 192 190 191 196 197 201 215 271 326 325 331 355 354 349 349 343 343 352 357 7 18 24 32 29 16 15 15 10 8 11 15 22 25 22 21 14 3 1 8 11 10 10 13 14 8 0 355 345 338 336 331 325 321 314 307 307 306 305 308 306 302 303 310 312 308 300 288 269 258 255 253 251
199 194 190 188 189 192 193 191 190 190 194 197 195 195 193 187 188 194 202 220 281 320 311 298 315 327 338 346 339 352 7 15 26 33 36 39 38 32 29 29 35 47 47 40 38 35 27 23 15 5 9 18 21 19 17 17 16 13 10 8 6 4 1 354 346 341 333 327 326 324 324 327 323 313 311 313 316 315 311 303 278 264 258 248 241
196 190 187 186 188 191 191 190 189 186 186 186 190 199 195 185 186 194 205 227 289 321 311 284 276 303 327 336 339 9 26 35 40 39 38 38 37 35 36 39 49 63 65 52 39 30 26 22 14 11 20 27 29 27 24 21 19 16 15 16 17 17 13 3 356 353 350 347 345 338 334 334 329 322 318 318 318 313 304 295 292 253 237 214 196
194 189 186 186 188 189 189 188 187 185 180 181 196 211 200 189 190 198 207 228 283 323 314 281 267 284 307 306 337 26 44 52 49 43 39 38 37 37 39 42 50 64 70 56 36 27 31 32 26 29 35 35 34 32 27 23 23 22 21 20 21 20 15 6 2 1 359 356 352 345 340 337 332 327 324 324 321 309 293 279 216 144 155 149 136
196 190 186 185 187 189 189 187 186 189 191 198 214 217 204 196 197 201 206 222 267 314 311 279 260 267 274 266 306 39 61 69 60 48 40 37 38 40 41 43 49 62 75 63 38 31 40 42 39 40 41 38 37 34 29 27 28 28 26 24 21 19 15 10 7 6 3 359 355 352 349 345 342 342 344 345 338 322 296 264 209 171 165 145 118
198 190 185 185 188 191 191 188 186 192 200 206 211 210 203 201 201 203 206 213 223 247 278 273 259 254 245 243 254 69 94 93 68 49 39 36 37 40 43 43 44 51 60 56 45 44 47 45 42 42 43 44 44 41 36 33 30 29 28 25 22 20 19 17 15 12 8 3 1 0 1 2 4 8 10 12 16 19 19 215 195 179 171 145 105
197 189 186 189 191 193 193 190 191 197 201 201 205 206 201 202 207 210 211 214 217 209 194 208 275 257 225 222 221 167 141 127 80 48 35 29 30 36 40 41 41 42 42 45 51 55 54 49 45 44 43 43 42 40 38 35 31 28 27 26 25 24 23 23 22 18 12 9 8 10 12 14 16 17 19 22 30 41 60 82 89 106 140 127 88
192 188 189 191 191 193 195 194 196 201 200 200 206 208 203 205 212 213 209 210 214 208 190 162 44 2 209 200 192 160 134 116 94 59 33 23 25 34 37 39 39 33 26 29 53 61 55 50 45 41 38 35 34 32 32 31 30 31 30 28 27 26 24 23 20 16 13 13 12 12 14 17 19 21 24 26 30 41 57 69 73 77 84 84 72
190 190 190 189 191 194 195 196 200 203 203 204 207 203 200 205 210 210 209 208 203 199 202 188 70 31 113 147 139 128 111 98 93 68 34 23 50 62 46 41 40 27 16 28 66 65 58 53 48 41 35 31 29 27 27 26 26 28 29 29 28 27 25 23 20 17 16 17 17 16 16 19 22 24 26 26 29 38 52 60 65 69 72 72 67
186 183 184 188 195 198 196 198 204 204 205 208 210 204 199 202 204 204 206 206 201 204 214 211 198 42 101 123 120 117 107 93 84 59 32 33 123 103 63 51 50 39 34 57 73 69 62 57 50 42 36 32 29 26 26 26 25 25 26 28 29 28 26 24 22 21 19 20 21 22 21 22 24 26 28 29 31 37 46 53 59 62 65 67 66
183 179 187 198 204 203 202 206 209 206 206 208 209 206 201 197 196 197 201 204 206 211 219 217 211 186 136 130 124 120 112 97 80 56 39 71 133 114 73 67 64 51 51 70 75 72 66 60 53 43 36 33 30 28 27 27 27 27 25 23 25 27 28 27 27 27 27 25 24 24 24 24 26 28 31 34 36 38 41 45 49 54 59 64 65
189 186 192 202 207 207 208 209 207 207 207 206 206 206 202 197 195 197 201 207 211 217 224 225 217 205 176 153 140 130 122 109 88 65 59 99 133 118 82 82 75 61 63 74 78 77 72 65 58 48 41 36 32 31 33 31 29 28 25 22 23 26 29 32 34 35 35 33 30 28 28 28 29 31 33 35 38 39 39 40 42 46 50 53 56
194 192 196 202 205 206 206 206 207 210 210 208 208 208 206 206 207 204 202 205 212 220 228 229 223 214 199 176 156 141 132 120 100 79 79 113 141 129 98 98 85 71 70 75 78 77 72 67 61 52 45 42 37 37 37 33 30 29 28 28 29 31 35 38 38 37 37 37 36 34 32 33 33 33 32 34 36 38 38 38 39 41 42 43 47
197 200 204 205 206 207 209 212 215 216 213 210 209 211 211 212 214 212 208 209 214 221 230 231 225 217 208 192 176 165 154 140 120 93 89 127 165 181 141 116 101 88 83 80 80 78 71 64 59 53 48 46 45 43 40 35 33 32 32 34 35 36 38 40 40 38 38 38 38 37 36 37 38 38 37 37 36 35 32 34 37 39 39 42 44
203 211 214 212 211 212 215 218 221 221 217 213 213 217 217 216 217 217 216 216 217 222 229 231 223 214 208 203 195 190 186 176 162 141 124 158 187 212 182 133 116 107 100 90 85 84 76 65 62 60 55 51 48 45 42 40 38 39 41 42 41 40 40 40 40 40 41 40 40 40 41 40 39 41 43 43 40 38 35 35 39 41 43 47 48
208 214 215 210 208 212 216 220 222 220 216 215 218 220 218 216 216 215 213 214 219 225 230 229 217 208 207 208 204 199 197 197 201 210 196 182 193 213 184 149 133 125 117 105 100 96 86 75 72 68 62 54 45 39 44 49 47 49 54 54 50 47 45 44 44 44 44 44 43 43 43 43 42 43 45 45 43 42 41 41 44 45 48 52 53
213 214 212 207 207 211 214 215 215 213 211 217 223 220 213 210 210 208 209 213 218 224 227 224 215 209 209 209 202 195 200 212 218 209 195 191 201 204 183 169 159 149 138 126 120 112 97 87 80 72 67 58 41 36 54 73 66 62 66 66 62 57 54 52 51 50 49 48 47 46 47 47 47 48 50 49 47 46 46 47 49 50 51 53 54
213 212 211 208 207 209 209 208 210 211 214 220 222 215 208 205 203 203 207 212 216 219 219 216 213 212 211 205 197 196 207 218 214 199 192 196 206 203 192 186 178 167 160 154 144 132 116 102 86 73 70 55 36 42 74 90 82 75 74 73 68 62 57 54 51 51 52 52 50 50 51 51 51 53 54 54 52 51 52 52 53 54 55 54 56
206 211 215 212 207 207 206 204 206 208 211 215 213 208 206 207 207 208 211 214 216 216 214 211 212 211 207 202 201 205 212 212 204 198 197 201 203 202 200 197 190 182 177 173 166 153 133 117 96 79 68 46 38 61 90 93 85 81 77 73 69 63 59 56 53 52 56 57 55 53 53 53 55 57 57 57 57 57 58 58 58 60 61 61 63
199 211 223 220 212 208 205 204 207 211 212 212 211 209 211 214 216 219 222 221 219 217 215 214 214 210 205 205 210 213 213 207 200 200 205 207 205 205 205 201 197 194 189 184 180 171 151 132 113 89 61 44 50 84 102 95 86 84 79 74 71 66 63 60 55 55 58 60 57 54 54 55 57 57 56 58 61 63 65 65 64 65 66 66 68
204 219 231 226 217 211 208 208 213 218 218 218 218 217 218 220 222 226 228 223 219 218 218 217 212 204 202 206 209 209 207 203 199 200 205 207 207 206 201 198 199 199 198 194 187 179 167 149 135 110 53 45 67 103 110 97 88 84 80 76 74 71 68 63 58 58 63 64 59 55 55 57 60 59 58 61 65 68 68 68 67 68 68 68 69
219 232 237 230 221 215 213 214 215 215 217 220 223 224 224 225 227 229 226 219 217 219 220 212 203 198 198 201 202 201 200 199 199 203 204 204 206 206 200 197 198 199 201 196 180 177 177 166 151 135 44 47 79 113 113 100 90 85 81 79 77 75 74 71 64 64 68 68 63 59 58 59 60 61 61 65 70 72 72 71 70 70 70 70 71
225 231 235 232 225 220 218 217 216 215 216 219 223 225 225 225 227 228 224 219 217 219 216 208 201 196 195 196 197 199 200 199 201 204 205 204 204 205 203 200 197 196 197 189 171 173 182 180 163 150 39 50 90 120 117 104 95 88 82 81 81 79 78 78 74 69 69 70 67 63 61 61 62 63 65 69 73 76 76 74 74 73 72 72 72
233 233 232 229 225 222 220 219 218 218 217 218 221 224 224 224 225 227 225 221 219 216 211 207 204 202 200 199 201 203 203 202 202 205 207 206 204 204 205 203 199 194 190 183 171 171 179 181 163 135 65 63 109 132 128 112 101 91 82 80 83 80 77 80 81 76 74 74 71 65 63 65 66 68 70 72 76 78 78 79 79 77 76 74 73
251 249 240 232 225 222 220 218 217 216 216 216 217 219 221 223 226 228 225 221 216 212 209 208 207 206 206 206 207 207 205 204 205 207 209 208 205 203 203 201 198 194 188 179 173 171 176 179 168 136 91 83 128 145 139 122 108 96 82 79 83 82 77 82 89 87 83 79 72 67 69 73 75 76 76 76 78 79 80 83 84 83 81 79 78
270 263 251 239 230 225 222 219 216 214 213 212 213 215 216 219 222 225 225 221 216 213 212 211 210 210 210 210 210 210 208 208 208 209 210 208 206 203 202 199 198 197 191 183 180 182 187 189 180 154 120 107 135 148 145 131 115 101 84 78 84 85 83 88 97 96 89 80 71 69 75 84 86 84 81 81 82 81 81 83 86 87 86 85 83
286 277 264 250 238 229 225 222 217 213 212 212 212 213 213 214 217 222 225 221 217 214 214 213 213 213 214 213 212 212 212 211 211 211 211 209 206 204 202 200 199 198 197 192 190 194 199 204 197 172 147 134 141 149 147 136 122 110 91 83 89 93 91 95 102 102 93 81 74 75 84 93 96 92 87 85 87 85 82 82 86 89 90 88 86
291 288 281 269 252 239 233 228 222 218 216 214 212 212 213 214 218 222 224 223 219 217 217 217 216 216 216 216 214 212 212 212 211 211 212 210 207 205 204 202 201 200 200 197 195 198 204 210 207 187 163 151 149 152 150 141 131 122 107 98 101 105 102 103 109 111 104 90 84 90 97 102 103 100 93 91 92 90 86 84 86 88 89 89 87
290 289 285 278 268 257 247 237 229 225 220 214 209 208 209 212 218 222 223 223 221 219 220 222 221 220 219 218 216 213 212 212 213 214 213 211 208 206 205 204 204 203 201 198 195 196 203 209 208 194 175 162 156 157 156 150 141 133 120 112 115 117 112 112 120 122 115 102 100 107 110 109 108 106 102 98 98 97 93 91 91 90 90 89 88
291 294 290 282 276 270 258 244 233 226 217 209 206 206 208 212 218 222 223 223 223 223 224 227 227 225 224 222 219 216 215 214 215 216 215 213 210 208 208 208 206 205 203 201 198 197 203 207 203 192 182 172 163 161 161 158 151 141 129 123 125 124 119 120 131 134 125 114 114 118 118 114 113 112 109 106 105 104 102 99 97 95 93 92 92